When you browse on this site, cookies collect data to enhance your experience and personalize the content and advertising you see.
Visit our Privacy Policy to learn more. By continuing to use the site, you agree to this use of cookies and data.
  • In Latvia
  • List of Countries
  • For 7 days
  • Water Temperature
  • Weather Map
  • Weather Widgets
  • user-avatar
    Login

    Hourly Weather Jewłach

    Today, 22 August, Thursday

    Time Temperature Precipitation Wind Pressure Humidity
    00:00 +26°C° 0 mm 3 mps 759 mmHg 37%
    01:00 +26°C° 0 mm 2 mps 759 mmHg 39%
    02:00 +25°C° 0 mm 2 mps 759 mmHg 41%
    03:00 +24°C° 0 mm 2 mps 758 mmHg 44%
    04:00 +25°C° 0 mm 1 mps 759 mmHg 43%
    05:00 +25°C° 0 mm 1 mps 759 mmHg 43%
    06:00 +23°C° 0 mm 0 mps 759 mmHg 43%
    07:00 +28°C° 0 mm 1 mps 759 mmHg 38%
    08:00 +31°C° 0 mm 2 mps 758 mmHg 32%
    09:00 +35°C° 0 mm 3 mps 758 mmHg 25%
    10:00 +36°C° 0 mm 4 mps 758 mmHg 22%
    11:00 +38°C° 0 mm 4 mps 757 mmHg 19%
    12:00 +41°C° 0 mm 5 mps 757 mmHg 15%
    13:00 +42°C° 0 mm 5 mps 757 mmHg 14%
    14:00 +44°C° 0 mm 6 mps 756 mmHg 13%
    15:00 +45°C° 0 mm 6 mps 756 mmHg 11%
    16:00 +44°C° 0 mm 6 mps 756 mmHg 13%
    17:00 +41°C° 0 mm 7 mps 756 mmHg 14%
    18:00 +40°C° 0 mm 7 mps 756 mmHg 16%
    19:00 +38°C° 0 mm 6 mps 756 mmHg 21%
    20:00 +34°C° 0 mm 5 mps 757 mmHg 26%
    21:00 +30°C° 0 mm 4 mps 757 mmHg 31%
    22:00 +29°C° 0 mm 4 mps 758 mmHg 34%
    23:00 +28°C° 0 mm 3 mps 758 mmHg 37%

    Tomorrow, 23 August, Friday

    Time Temperature Precipitation Wind Pressure Humidity
    00:00 +27°C° 0 mm 3 mps 758 mmHg 40%
    01:00 +26°C° 0 mm 3 mps 758 mmHg 42%
    02:00 +26°C° 0 mm 2 mps 758 mmHg 44%
    03:00 +25°C° 0 mm 2 mps 758 mmHg 46%
    04:00 +25°C° 0 mm 2 mps 758 mmHg 46%
    05:00 +26°C° 0 mm 2 mps 758 mmHg 46%
    06:00 +26°C° 0 mm 2 mps 758 mmHg 46%
    07:00 +28°C° 0 mm 2 mps 758 mmHg 40%
    08:00 +31°C° 0 mm 2 mps 758 mmHg 35%
    09:00 +35°C° 0 mm 3 mps 758 mmHg 29%
    10:00 +37°C° 0 mm 4 mps 758 mmHg 25%
    11:00 +40°C° 0 mm 5 mps 757 mmHg 21%
    12:00 +43°C° 0 mm 7 mps 757 mmHg 17%
    13:00 +44°C° 0 mm 7 mps 757 mmHg 17%
    14:00 +44°C° 0 mm 8 mps 756 mmHg 16%
    15:00 +45°C° 0 mm 8 mps 756 mmHg 15%
    16:00 +44°C° 0 mm 8 mps 756 mmHg 15%
    17:00 +43°C° 0 mm 8 mps 756 mmHg 15%
    18:00 +41°C° 0 mm 8 mps 756 mmHg 14%
    19:00 +38°C° 0 mm 7 mps 757 mmHg 18%
    20:00 +35°C° 0 mm 6 mps 757 mmHg 22%
    21:00 +32°C° 0 mm 4 mps 758 mmHg 25%
    22:00 +30°C° 0 mm 4 mps 758 mmHg 29%
    23:00 +29°C° 0 mm 3 mps 758 mmHg 33%

    Day after tomorrow, 24 August, Saturday

    Time Temperature Precipitation Wind Pressure Humidity
    00:00 +27°C° 0 mm 2 mps 758 mmHg 36%
    01:00 +27°C° 0 mm 2 mps 758 mmHg 41%
    02:00 +26°C° 0 mm 2 mps 758 mmHg 46%
    03:00 +25°C° 0 mm 2 mps 758 mmHg 51%
    04:00 +26°C° 0 mm 1 mps 758 mmHg 51%
    05:00 +26°C° 0 mm 1 mps 758 mmHg 52%
    06:00 +26°C° 0 mm 1 mps 758 mmHg 53%
    07:00 +29°C° 0 mm 1 mps 758 mmHg 46%
    08:00 +31°C° 0 mm 1 mps 758 mmHg 40%
    09:00 +34°C° 0 mm 1 mps 758 mmHg 34%
    10:00 +37°C° 0 mm 3 mps 758 mmHg 29%
    11:00 +41°C° 0 mm 4 mps 757 mmHg 23%
    12:00 +43°C° 0 mm 5 mps 757 mmHg 17%
    13:00 +45°C° 0 mm 6 mps 757 mmHg 16%
    14:00 +45°C° 0 mm 6 mps 757 mmHg 15%
    15:00 +46°C° 0 mm 7 mps 756 mmHg 14%
    16:00 +45°C° 0 mm 7 mps 756 mmHg 14%
    17:00 +44°C° 0 mm 7 mps 757 mmHg 14%
    18:00 +41°C° 0 mm 7 mps 757 mmHg 15%
    19:00 +39°C° 0 mm 6 mps 758 mmHg 21%
    20:00 +35°C° 0 mm 5 mps 758 mmHg 28%
    21:00 +32°C° 0 mm 4 mps 759 mmHg 34%
    22:00 +30°C° 0 mm 3 mps 759 mmHg 38%
    23:00 +29°C° 0 mm 2 mps 759 mmHg 42%

    25 August, Sunday

    Time Temperature Precipitation Wind Pressure Humidity
    00:00 +28°C° 0 mm 1 mps 759 mmHg 46%
    01:00 +27°C° 0 mm 1 mps 759 mmHg 47%
    02:00 +27°C° 0 mm 1 mps 759 mmHg 49%
    03:00 +27°C° 0 mm 1 mps 759 mmHg 50%
    04:00 +27°C° 0 mm 1 mps 759 mmHg 49%
    05:00 +27°C° 0 mm 2 mps 759 mmHg 49%
    06:00 +27°C° 0 mm 2 mps 759 mmHg 48%
    07:00 +30°C° 0 mm 2 mps 759 mmHg 42%
    08:00 +32°C° 0 mm 2 mps 759 mmHg 36%
    09:00 +36°C° 0 mm 2 mps 758 mmHg 30%
    10:00 +37°C° 0 mm 2 mps 758 mmHg 25%
    11:00 +39°C° 0 mm 3 mps 758 mmHg 21%
    12:00 +40°C° 0 mm 3 mps 757 mmHg 16%
    13:00 +42°C° 0 mm 3 mps 757 mmHg 16%
    14:00 +43°C° 0 mm 4 mps 757 mmHg 15%
    15:00 +43°C° 0 mm 4 mps 756 mmHg 14%
    16:00 +42°C° 0 mm 5 mps 756 mmHg 16%
    17:00 +41°C° 0 mm 6 mps 756 mmHg 17%
    18:00 +40°C° 0 mm 7 mps 756 mmHg 18%
    19:00 +36°C° 0 mm 6 mps 757 mmHg 22%
    20:00 +34°C° 0 mm 6 mps 758 mmHg 25%
    21:00 +30°C° 0 mm 5 mps 759 mmHg 29%
    22:00 +29°C° 0 mm 4 mps 759 mmHg 32%
    23:00 +27°C° 0 mm 4 mps 759 mmHg 35%

    26 August, Monday

    Time Temperature Precipitation Wind Pressure Humidity
    00:00 +26°C° 0 mm 3 mps 759 mmHg 38%
    01:00 +26°C° 0 mm 3 mps 759 mmHg 41%
    02:00 +25°C° 0 mm 2 mps 758 mmHg 44%
    03:00 +24°C° 0 mm 2 mps 758 mmHg 46%
    04:00 +25°C° 0 mm 1 mps 759 mmHg 47%
    05:00 +25°C° 0 mm 1 mps 759 mmHg 47%
    06:00 +23°C° 0 mm 0 mps 759 mmHg 47%
    07:00 +27°C° 0 mm 1 mps 759 mmHg 42%
    08:00 +29°C° 0 mm 1 mps 759 mmHg 36%
    09:00 +31°C° 0 mm 2 mps 759 mmHg 30%
    10:00 +34°C° 0.1 mm 2 mps 759 mmHg 27%
    11:00 +35°C° 0.1 mm 2 mps 759 mmHg 23%
    12:00 +37°C° 0.1 mm 3 mps 759 mmHg 19%
    13:00 +37°C° 0.1 mm 3 mps 758 mmHg 19%
    14:00 +37°C° 0.1 mm 3 mps 758 mmHg 19%
    15:00 +38°C° 0.1 mm 3 mps 758 mmHg 19%
    16:00 +37°C° 0 mm 3 mps 758 mmHg 20%
    17:00 +37°C° 0 mm 4 mps 759 mmHg 20%
    18:00 +36°C° 0 mm 4 mps 759 mmHg 21%
    19:00 +34°C° 0 mm 5 mps 760 mmHg 29%
    20:00 +32°C° 0 mm 7 mps 761 mmHg 36%
    21:00 +31°C° 0 mm 8 mps 762 mmHg 43%
    22:00 +29°C° 0 mm 7 mps 762 mmHg 46%
    23:00 +28°C° 0 mm 6 mps 762 mmHg 48%

    27 August, Tuesday

    Time Temperature Precipitation Wind Pressure Humidity
    00:00 +28°C° 0 mm 5 mps 762 mmHg 50%
    01:00 +28°C° 0 mm 5 mps 762 mmHg 52%
    02:00 +27°C° 0 mm 5 mps 761 mmHg 54%
    03:00 +27°C° 0 mm 5 mps 761 mmHg 56%
    04:00 +27°C° 0 mm 5 mps 761 mmHg 58%
    05:00 +26°C° 0 mm 6 mps 761 mmHg 59%
    06:00 +26°C° 0 mm 7 mps 762 mmHg 61%
    07:00 +28°C° 0 mm 7 mps 761 mmHg 56%
    08:00 +29°C° 0 mm 7 mps 761 mmHg 50%
    09:00 +32°C° 0 mm 8 mps 761 mmHg 45%
    10:00 +33°C° 0.2 mm 7 mps 761 mmHg 41%
    11:00 +34°C° 0.2 mm 7 mps 760 mmHg 37%
    12:00 +35°C° 0.2 mm 7 mps 760 mmHg 33%
    13:00 +36°C° 0.2 mm 6 mps 759 mmHg 32%
    14:00 +36°C° 0.2 mm 6 mps 759 mmHg 30%
    15:00 +36°C° 0.2 mm 6 mps 758 mmHg 29%
    16:00 +35°C° 0.1 mm 7 mps 758 mmHg 31%
    17:00 +34°C° 0.1 mm 7 mps 759 mmHg 34%
    18:00 +33°C° 0.1 mm 7 mps 759 mmHg 37%
    19:00 +30°C° 0.2 mm 6 mps 759 mmHg 45%
    20:00 +28°C° 0.2 mm 5 mps 759 mmHg 53%
    21:00 +25°C° 0.2 mm 4 mps 759 mmHg 61%
    22:00 +25°C° 0.2 mm 4 mps 759 mmHg 66%
    23:00 +23°C° 0.2 mm 4 mps 759 mmHg 70%
    Show more